Location: Piolenc
(44.1794°N, 4.7641°E)
Time: 00:36:07
(UTC+00:00)

Cosmos 2228 - Pass Details

Date: 27 January 2021
Orbit: 589 x 617 km, 82.5° (Epoch: 27 February)

Event Time Altitude Azimuth Distance (km) Brightness Sun altitude
Rises 05:10:13 0° 174° (S) 2,815 6.6 -20.4°
Reaches altitude 10° 05:12:27 10° 170° (S) 1,916 5.8 -20.0°
Maximum altitude 05:16:33 51° 94° (E) 744 3.8 -19.3°
Drops below altitude 10° 05:20:41 10° 18° (NNE) 1,927 5.7 -18.5°
Sets 05:22:56 0° 14° (NNE) 2,833 6.5 -18.1°
